Year,Month,Day,Hour,Minute,Value (Times are PST for insolation in W/m^2)
2008,08,21,00,00,0.00
2008,08,21,00,01,0.00
2008,08,21,00,02,0.00
2008,08,21,00,03,0.00
2008,08,21,00,04,0.00
2008,08,21,00,05,0.00
2008,08,21,00,06,0.00
2008,08,21,00,07,0.00
2008,08,21,00,08,0.00
2008,08,21,00,09,0.00
2008,08,21,00,10,0.00
2008,08,21,00,11,0.00
2008,08,21,00,12,0.00
2008,08,21,00,13,0.00
2008,08,21,00,14,0.00
2008,08,21,00,15,0.00
2008,08,21,00,16,0.00
2008,08,21,00,17,0.00
2008,08,21,00,18,0.00
2008,08,21,00,19,0.00
2008,08,21,00,20,0.00
2008,08,21,00,21,0.00
2008,08,21,00,22,0.00
2008,08,21,00,23,0.00
2008,08,21,00,24,0.00
2008,08,21,00,25,0.00
2008,08,21,00,26,0.00
2008,08,21,00,27,0.00
2008,08,21,00,28,0.00
2008,08,21,00,29,0.00
2008,08,21,00,30,0.00
2008,08,21,00,31,0.00
2008,08,21,00,32,0.00
2008,08,21,00,33,0.00
2008,08,21,00,34,0.00
2008,08,21,00,35,0.00
2008,08,21,00,36,0.00
2008,08,21,00,37,0.00
2008,08,21,00,38,0.00
2008,08,21,00,39,0.00
2008,08,21,00,40,0.00
2008,08,21,00,41,0.00
2008,08,21,00,42,0.00
2008,08,21,00,43,0.00
2008,08,21,00,44,0.00
2008,08,21,00,45,0.00
2008,08,21,00,46,0.00
2008,08,21,00,47,0.00
2008,08,21,00,48,0.00
2008,08,21,00,49,0.00
2008,08,21,00,50,0.00
2008,08,21,00,51,0.00
2008,08,21,00,52,0.00
2008,08,21,00,53,0.00
2008,08,21,00,54,0.00
2008,08,21,00,55,0.00
2008,08,21,00,56,0.00
2008,08,21,00,57,0.00
2008,08,21,00,58,0.00
2008,08,21,00,59,0.00
2008,08,21,01,00,0.00
2008,08,21,01,01,0.00
2008,08,21,01,02,0.00
2008,08,21,01,03,0.00
2008,08,21,01,04,0.00
2008,08,21,01,05,0.00
2008,08,21,01,06,0.00
2008,08,21,01,07,0.00
2008,08,21,01,08,0.00
2008,08,21,01,09,0.00
2008,08,21,01,10,0.00
2008,08,21,01,11,0.00
2008,08,21,01,12,0.00
2008,08,21,01,13,0.00
2008,08,21,01,14,0.00
2008,08,21,01,15,0.00
2008,08,21,01,16,0.00
2008,08,21,01,17,0.00
2008,08,21,01,18,0.00
2008,08,21,01,19,0.00
2008,08,21,01,20,0.00
2008,08,21,01,21,0.00
2008,08,21,01,22,0.00
2008,08,21,01,23,0.00
2008,08,21,01,24,0.00
2008,08,21,01,25,0.00
2008,08,21,01,26,0.00
2008,08,21,01,27,0.00
2008,08,21,01,28,0.00
2008,08,21,01,29,0.00
2008,08,21,01,30,0.00
2008,08,21,01,31,0.00
2008,08,21,01,32,0.00
2008,08,21,01,33,0.00
2008,08,21,01,34,0.00
2008,08,21,01,35,0.00
2008,08,21,01,36,0.00
2008,08,21,01,37,0.00
2008,08,21,01,38,0.00
2008,08,21,01,39,0.00
2008,08,21,01,40,0.00
2008,08,21,01,41,0.00
2008,08,21,01,42,0.00
2008,08,21,01,43,0.00
2008,08,21,01,44,0.00
2008,08,21,01,45,0.00
2008,08,21,01,46,0.00
2008,08,21,01,47,0.00
2008,08,21,01,48,0.00
2008,08,21,01,49,0.00
2008,08,21,01,50,0.00
2008,08,21,01,51,0.00
2008,08,21,01,52,0.00
2008,08,21,01,53,0.00
2008,08,21,01,54,0.00
2008,08,21,01,55,0.00
2008,08,21,01,56,0.00
2008,08,21,01,57,0.00
2008,08,21,01,58,0.00
2008,08,21,01,59,0.00
2008,08,21,02,00,0.00
2008,08,21,02,01,0.00
2008,08,21,02,02,0.00
2008,08,21,02,03,0.00
2008,08,21,02,04,0.00
2008,08,21,02,05,0.00
2008,08,21,02,06,0.00
2008,08,21,02,07,0.00
2008,08,21,02,08,0.00
2008,08,21,02,09,0.00
2008,08,21,02,10,0.00
2008,08,21,02,11,0.00
2008,08,21,02,12,0.00
2008,08,21,02,13,0.00
2008,08,21,02,14,0.00
2008,08,21,02,15,0.00
2008,08,21,02,16,0.00
2008,08,21,02,17,0.00
2008,08,21,02,18,0.00
2008,08,21,02,19,0.00
2008,08,21,02,20,0.00
2008,08,21,02,21,0.00
2008,08,21,02,22,0.00
2008,08,21,02,23,0.00
2008,08,21,02,24,0.00
2008,08,21,02,25,0.00
2008,08,21,02,26,0.00
2008,08,21,02,27,0.00
2008,08,21,02,28,0.00
2008,08,21,02,29,0.00
2008,08,21,02,30,0.00
2008,08,21,02,31,0.00
2008,08,21,02,32,0.00
2008,08,21,02,33,0.00
2008,08,21,02,34,0.00
2008,08,21,02,35,0.00
2008,08,21,02,36,0.00
2008,08,21,02,37,0.00
2008,08,21,02,38,0.00
2008,08,21,02,39,0.00
2008,08,21,02,40,0.00
2008,08,21,02,41,0.00
2008,08,21,02,42,0.00
2008,08,21,02,43,0.00
2008,08,21,02,44,0.00
2008,08,21,02,45,0.00
2008,08,21,02,46,0.00
2008,08,21,02,47,0.00
2008,08,21,02,48,0.00
2008,08,21,02,49,0.00
2008,08,21,02,50,0.00
2008,08,21,02,51,0.00
2008,08,21,02,52,0.00
2008,08,21,02,53,0.00
2008,08,21,02,54,0.00
2008,08,21,02,55,0.00
2008,08,21,02,56,0.00
2008,08,21,02,57,0.00
2008,08,21,02,58,0.00
2008,08,21,02,59,0.00
2008,08,21,03,00,0.00
2008,08,21,03,01,0.00
2008,08,21,03,02,0.00
2008,08,21,03,03,0.00
2008,08,21,03,04,0.00
2008,08,21,03,05,0.00
2008,08,21,03,06,0.00
2008,08,21,03,07,0.00
2008,08,21,03,08,0.00
2008,08,21,03,09,0.00
2008,08,21,03,10,0.00
2008,08,21,03,11,0.00
2008,08,21,03,12,0.00
2008,08,21,03,13,0.00
2008,08,21,03,14,0.00
2008,08,21,03,15,0.00
2008,08,21,03,16,0.00
2008,08,21,03,17,0.00
2008,08,21,03,18,0.00
2008,08,21,03,19,0.00
2008,08,21,03,20,0.00
2008,08,21,03,21,0.00
2008,08,21,03,22,0.00
2008,08,21,03,23,0.00
2008,08,21,03,24,0.00
2008,08,21,03,25,0.00
2008,08,21,03,26,0.00
2008,08,21,03,27,0.00
2008,08,21,03,28,0.00
2008,08,21,03,29,0.00
2008,08,21,03,30,0.00
2008,08,21,03,31,0.00
2008,08,21,03,32,0.00
2008,08,21,03,33,0.00
2008,08,21,03,34,0.00
2008,08,21,03,35,0.00
2008,08,21,03,36,0.00
2008,08,21,03,37,0.00
2008,08,21,03,38,0.00
2008,08,21,03,39,0.00
2008,08,21,03,40,0.00
2008,08,21,03,41,0.00
2008,08,21,03,42,0.00
2008,08,21,03,43,0.00
2008,08,21,03,44,0.00
2008,08,21,03,45,0.00
2008,08,21,03,46,0.00
2008,08,21,03,47,0.00
2008,08,21,03,48,0.00
2008,08,21,03,49,0.00
2008,08,21,03,50,0.00
2008,08,21,03,51,0.00
2008,08,21,03,52,0.00
2008,08,21,03,53,0.00
2008,08,21,03,54,0.00
2008,08,21,03,55,0.00
2008,08,21,03,56,0.00
2008,08,21,03,57,0.00
2008,08,21,03,58,0.00
2008,08,21,03,59,0.00
2008,08,21,04,00,0.00
2008,08,21,04,01,0.00
2008,08,21,04,02,0.00
2008,08,21,04,03,0.00
2008,08,21,04,04,0.00
2008,08,21,04,05,0.00
2008,08,21,04,06,0.00
2008,08,21,04,07,0.00
2008,08,21,04,08,0.00
2008,08,21,04,09,0.00
2008,08,21,04,10,0.00
2008,08,21,04,24,0.00
2008,08,21,04,43,0.00
2008,08,21,05,05,0.00
2008,08,21,05,29,0.00
2008,08,21,05,47,0.00
2008,08,21,06,02,0.00
2008,08,21,06,20,0.00
2008,08,21,06,46,12.00
2008,08,21,06,51,16.00
2008,08,21,06,52,18.00
2008,08,21,06,53,19.00
2008,08,21,06,54,22.40
2008,08,21,06,55,23.00
2008,08,21,06,56,23.00
2008,08,21,06,57,25.20
2008,08,21,06,58,32.00
2008,08,21,06,59,32.00
2008,08,21,07,00,32.00
2008,08,21,07,01,32.70
2008,08,21,07,02,34.60
2008,08,21,07,03,35.00
2008,08,21,07,04,35.00
2008,08,21,07,05,35.00
2008,08,21,07,06,35.00
2008,08,21,07,07,35.00
2008,08,21,07,08,35.00
2008,08,21,07,09,43.20
2008,08,21,07,10,46.70
2008,08,21,07,11,48.70
2008,08,21,07,12,49.20
2008,08,21,07,13,51.30
2008,08,21,07,14,53.20
2008,08,21,07,15,54.80
2008,08,21,07,16,58.00
2008,08,21,07,17,61.80
2008,08,21,07,18,63.00
2008,08,21,07,19,68.60
2008,08,21,07,20,69.10
2008,08,21,07,21,67.00
2008,08,21,07,22,66.20
2008,08,21,07,23,62.10
2008,08,21,07,24,58.40
2008,08,21,07,25,54.50
2008,08,21,07,26,51.70
2008,08,21,07,27,51.00
2008,08,21,07,28,51.00
2008,08,21,07,29,47.20
2008,08,21,07,30,47.60
2008,08,21,07,31,51.00
2008,08,21,07,32,51.00
2008,08,21,07,33,50.20
2008,08,21,07,34,49.00
2008,08,21,07,35,49.00
2008,08,21,07,36,49.00
2008,08,21,07,37,49.00
2008,08,21,07,38,48.90
2008,08,21,07,39,47.80
2008,08,21,07,40,51.60
2008,08,21,07,41,53.00
2008,08,21,07,42,53.00
2008,08,21,07,43,53.60
2008,08,21,07,44,54.00
2008,08,21,07,45,53.20
2008,08,21,07,46,53.00
2008,08,21,07,47,53.20
2008,08,21,07,48,54.00
2008,08,21,07,49,55.40
2008,08,21,07,50,58.80
2008,08,21,07,51,61.70
2008,08,21,07,52,65.50
2008,08,21,07,53,67.00
2008,08,21,07,54,67.00
2008,08,21,07,55,67.00
2008,08,21,07,56,70.40
2008,08,21,07,57,85.30
2008,08,21,07,58,89.10
2008,08,21,07,59,94.00
2008,08,21,08,00,100.80
2008,08,21,08,01,106.10
2008,08,21,08,02,112.10
2008,08,21,08,03,115.70
2008,08,21,08,04,124.00
2008,08,21,08,05,192.00
2008,08,21,08,06,192.00
2008,08,21,08,07,192.00
2008,08,21,08,08,192.00
2008,08,21,08,09,139.20
2008,08,21,08,10,101.20
2008,08,21,08,11,98.30
2008,08,21,08,12,91.70
2008,08,21,08,13,90.30
2008,08,21,08,14,84.00
2008,08,21,08,15,84.00
2008,08,21,08,16,84.90
2008,08,21,08,17,86.00
2008,08,21,08,18,86.00
2008,08,21,08,19,93.10
2008,08,21,08,20,100.90
2008,08,21,08,21,103.20
2008,08,21,08,22,114.00
2008,08,21,08,23,114.00
2008,08,21,08,24,122.00
2008,08,21,08,25,135.60
2008,08,21,08,26,137.00
2008,08,21,08,27,137.00
2008,08,21,08,28,137.00
2008,08,21,08,29,135.10
2008,08,21,08,30,134.90
2008,08,21,08,31,134.20
2008,08,21,08,32,135.00
2008,08,21,08,33,133.70
2008,08,21,08,34,129.50
2008,08,21,08,35,124.40
2008,08,21,08,36,120.80
2008,08,21,08,37,120.00
2008,08,21,08,38,116.20
2008,08,21,08,39,116.00
2008,08,21,08,40,116.00
2008,08,21,08,41,116.70
2008,08,21,08,42,119.30
2008,08,21,08,43,122.10
2008,08,21,08,44,124.50
2008,08,21,08,45,125.00
2008,08,21,08,46,121.40
2008,08,21,08,47,120.50
2008,08,21,08,48,125.00
2008,08,21,08,49,125.00
2008,08,21,08,50,120.20
2008,08,21,08,51,110.00
2008,08,21,08,52,105.10
2008,08,21,08,53,104.00
2008,08,21,08,54,106.60
2008,08,21,08,55,110.90
2008,08,21,08,56,113.40
2008,08,21,08,57,116.80
2008,08,21,08,58,122.40
2008,08,21,08,59,131.50
2008,08,21,09,00,193.20
2008,08,21,09,01,256.20
2008,08,21,09,02,271.00
2008,08,21,09,03,271.00
2008,08,21,09,04,261.10
2008,08,21,09,05,175.80
2008,08,21,09,06,190.00
2008,08,21,09,07,205.60
2008,08,21,09,08,227.00
2008,08,21,09,09,203.60
2008,08,21,09,10,181.70
2008,08,21,09,11,168.90
2008,08,21,09,12,167.00
2008,08,21,09,13,167.00
2008,08,21,09,14,171.40
2008,08,21,09,15,188.00
2008,08,21,09,16,198.40
2008,08,21,09,17,211.00
2008,08,21,09,18,211.00
2008,08,21,09,19,237.40
2008,08,21,09,20,244.00
2008,08,21,09,21,229.60
2008,08,21,09,22,207.00
2008,08,21,09,23,207.00
2008,08,21,09,24,207.00
2008,08,21,09,25,207.00
2008,08,21,09,26,207.00
2008,08,21,09,27,192.60
2008,08,21,09,28,187.60
2008,08,21,09,29,188.00
2008,08,21,09,30,187.90
2008,08,21,09,31,185.00
2008,08,21,09,32,178.90
2008,08,21,09,33,172.70
2008,08,21,09,34,172.60
2008,08,21,09,35,174.00
2008,08,21,09,36,191.20
2008,08,21,09,37,210.60
2008,08,21,09,38,219.70
2008,08,21,09,39,220.10
2008,08,21,09,40,222.00
2008,08,21,09,41,225.70
2008,08,21,09,42,227.90
2008,08,21,09,43,230.60
2008,08,21,09,44,237.90
2008,08,21,09,45,244.70
2008,08,21,09,46,251.90
2008,08,21,09,47,265.00
2008,08,21,09,48,279.00
2008,08,21,09,49,282.40
2008,08,21,09,50,283.60
2008,08,21,09,51,288.00
2008,08,21,09,52,286.30
2008,08,21,09,53,278.70
2008,08,21,09,54,276.00
2008,08,21,09,55,276.00
2008,08,21,09,56,263.60
2008,08,21,09,57,260.00
2008,08,21,09,58,260.00
2008,08,21,09,59,260.00
2008,08,21,10,00,235.30
2008,08,21,10,01,217.60
2008,08,21,10,02,222.20
2008,08,21,10,03,223.00
2008,08,21,10,04,218.10
2008,08,21,10,05,216.60
2008,08,21,10,06,220.80
2008,08,21,10,07,222.30
2008,08,21,10,08,219.50
2008,08,21,10,09,212.60
2008,08,21,10,10,209.00
2008,08,21,10,11,209.00
2008,08,21,10,12,209.00
2008,08,21,10,13,181.70
2008,08,21,10,14,186.90
2008,08,21,10,15,181.00
2008,08,21,10,16,174.00
2008,08,21,10,17,170.00
2008,08,21,10,18,169.00
2008,08,21,10,19,172.70
2008,08,21,10,20,177.20
2008,08,21,10,21,178.40
2008,08,21,10,22,185.00
2008,08,21,10,23,185.00
2008,08,21,10,24,185.40
2008,08,21,10,25,185.60
2008,08,21,10,26,185.00
2008,08,21,10,27,183.60
2008,08,21,10,28,183.00
2008,08,21,10,29,184.80
2008,08,21,10,30,188.40
2008,08,21,10,31,193.00
2008,08,21,10,32,198.30
2008,08,21,10,33,203.60
2008,08,21,10,34,206.00
2008,08,21,10,35,206.60
2008,08,21,10,36,207.00
2008,08,21,10,37,207.00
2008,08,21,10,38,207.00
2008,08,21,10,39,201.30
2008,08,21,10,40,193.60
2008,08,21,10,41,187.10
2008,08,21,10,42,183.20
2008,08,21,10,43,181.00
2008,08,21,10,44,181.00
2008,08,21,10,45,181.00
2008,08,21,10,46,181.00
2008,08,21,10,47,181.60
2008,08,21,10,48,192.40
2008,08,21,10,49,195.00
2008,08,21,10,50,198.10
2008,08,21,10,51,208.30
2008,08,21,10,52,217.80
2008,08,21,10,53,227.20
2008,08,21,10,54,236.80
2008,08,21,10,55,239.00
2008,08,21,10,56,241.90
2008,08,21,10,57,272.40
2008,08,21,10,58,294.00
2008,08,21,10,59,294.00
2008,08,21,11,00,294.00
2008,08,21,11,01,688.70
2008,08,21,11,02,919.00
2008,08,21,11,03,919.00
2008,08,21,11,04,919.00
2008,08,21,11,05,733.70
2008,08,21,11,06,666.00
2008,08,21,11,07,666.00
2008,08,21,11,08,537.30
2008,08,21,11,09,366.20
2008,08,21,11,10,355.00
2008,08,21,11,11,355.00
2008,08,21,11,12,856.90
2008,08,21,11,13,892.30
2008,08,21,11,14,679.00
2008,08,21,11,15,585.40
2008,08,21,11,16,368.60
2008,08,21,11,17,383.50
2008,08,21,11,18,396.00
2008,08,21,11,19,396.00
2008,08,21,11,20,396.00
2008,08,21,11,21,884.50
2008,08,21,11,22,942.00
2008,08,21,11,23,942.00
2008,08,21,11,24,929.40
2008,08,21,11,25,902.00
2008,08,21,11,26,902.00
2008,08,21,11,27,832.50
2008,08,21,11,28,795.00
2008,08,21,11,29,795.00
2008,08,21,11,30,795.00
2008,08,21,11,31,786.30
2008,08,21,11,32,740.00
2008,08,21,11,33,721.10
2008,08,21,11,34,686.00
2008,08,21,11,35,686.00
2008,08,21,11,36,686.00
2008,08,21,11,37,686.00
2008,08,21,11,38,339.50
2008,08,21,11,39,271.90
2008,08,21,11,40,252.40
2008,08,21,11,41,250.00
2008,08,21,11,42,252.80
2008,08,21,11,43,250.00
2008,08,21,11,44,238.60
2008,08,21,11,45,238.20
2008,08,21,11,46,246.60
2008,08,21,11,47,263.30
2008,08,21,11,48,289.90
2008,08,21,11,49,310.50
2008,08,21,11,50,333.00
2008,08,21,11,51,350.70
2008,08,21,11,52,357.00
2008,08,21,11,53,376.50
2008,08,21,11,54,418.50
2008,08,21,11,55,429.00
2008,08,21,11,56,415.70
2008,08,21,11,57,415.00
2008,08,21,11,58,415.00
2008,08,21,11,59,411.40
2008,08,21,12,00,435.00
2008,08,21,12,01,512.60
2008,08,21,12,02,521.10
2008,08,21,12,03,510.00
2008,08,21,12,04,601.80
2008,08,21,12,05,612.00
2008,08,21,12,06,655.60
2008,08,21,12,07,830.00
2008,08,21,12,08,830.00
2008,08,21,12,09,830.00
2008,08,21,12,10,830.00
2008,08,21,12,11,830.00
2008,08,21,12,12,830.00
2008,08,21,12,13,541.20
2008,08,21,12,14,526.00
2008,08,21,12,15,526.00
2008,08,21,12,16,526.00
2008,08,21,12,17,587.50
2008,08,21,12,18,649.00
2008,08,21,12,19,649.00
2008,08,21,12,20,529.00
2008,08,21,12,21,499.00
2008,08,21,12,22,578.50
2008,08,21,12,23,604.00
2008,08,21,12,24,596.00
2008,08,21,12,25,596.00
2008,08,21,12,26,596.00
2008,08,21,12,27,596.00
2008,08,21,12,28,596.00
2008,08,21,12,29,596.00
2008,08,21,12,30,543.90
2008,08,21,12,31,534.30
2008,08,21,12,32,546.20
2008,08,21,12,33,577.00
2008,08,21,12,34,593.20
2008,08,21,12,35,580.50
2008,08,21,12,36,573.60
2008,08,21,12,37,582.00
2008,08,21,12,38,582.00
2008,08,21,12,39,603.80
2008,08,21,12,40,997.00
2008,08,21,12,41,997.00
2008,08,21,12,42,777.20
2008,08,21,12,43,475.00
2008,08,21,12,44,482.20
2008,08,21,12,45,487.00
2008,08,21,12,46,487.00
2008,08,21,12,47,487.00
2008,08,21,12,48,547.00
2008,08,21,12,49,496.80
2008,08,21,12,50,335.50
2008,08,21,12,51,316.00
2008,08,21,12,52,273.60
2008,08,21,12,53,246.20
2008,08,21,12,54,299.00
2008,08,21,12,55,286.10
2008,08,21,12,56,349.20
2008,08,21,12,57,963.00
2008,08,21,12,58,963.00
2008,08,21,12,59,963.00
2008,08,21,13,00,963.00
2008,08,21,13,01,963.00
2008,08,21,13,02,963.00
2008,08,21,13,03,963.00
2008,08,21,13,04,963.00
2008,08,21,13,05,930.20
2008,08,21,13,06,635.00
2008,08,21,13,07,730.90
2008,08,21,13,08,918.70
2008,08,21,13,09,932.50
2008,08,21,13,10,932.40
2008,08,21,13,11,918.50
2008,08,21,13,12,952.70
2008,08,21,13,13,960.00
2008,08,21,13,14,960.00
2008,08,21,13,15,960.00
2008,08,21,13,16,960.00
2008,08,21,13,17,960.00
2008,08,21,13,18,980.30
2008,08,21,13,19,992.60
2008,08,21,13,20,990.00
2008,08,21,13,21,990.00
2008,08,21,13,22,993.10
2008,08,21,13,23,1023.00
2008,08,21,13,24,1028.40
2008,08,21,13,25,1044.20
2008,08,21,13,26,1052.50
2008,08,21,13,27,1061.70
2008,08,21,13,28,1065.00
2008,08,21,13,29,1096.20
2008,08,21,13,30,1106.00
2008,08,21,13,31,1067.80
2008,08,21,13,32,851.00
2008,08,21,13,33,851.00
2008,08,21,13,34,987.80
2008,08,21,13,35,1190.00
2008,08,21,13,36,1204.00
2008,08,21,13,37,1204.00
2008,08,21,13,38,1204.00
2008,08,21,13,39,1163.20
2008,08,21,13,40,388.00
2008,08,21,13,41,393.30
2008,08,21,13,42,412.60
2008,08,21,13,43,414.60
2008,08,21,13,44,398.40
2008,08,21,13,45,390.60
2008,08,21,13,46,394.70
2008,08,21,13,47,413.90
2008,08,21,13,48,446.60
2008,08,21,13,49,480.80
2008,08,21,13,50,522.40
2008,08,21,13,51,577.00
2008,08,21,13,52,577.00
2008,08,21,13,53,577.00
2008,08,21,13,54,577.00
2008,08,21,13,55,577.00
2008,08,21,13,56,459.60
2008,08,21,13,57,478.90
2008,08,21,13,58,444.00
2008,08,21,13,59,467.30
2008,08,21,14,00,454.20
2008,08,21,14,01,438.00
2008,08,21,14,02,543.70
2008,08,21,14,03,589.00
2008,08,21,14,04,1036.30
2008,08,21,14,05,1053.80
2008,08,21,14,06,1031.90
2008,08,21,14,07,1016.20
2008,08,21,14,08,999.80
2008,08,21,14,09,991.00
2008,08,21,14,10,1000.60
2008,08,21,14,11,1003.50
2008,08,21,14,12,1002.00
2008,08,21,14,13,966.00
2008,08,21,14,14,962.00
2008,08,21,14,15,939.40
2008,08,21,14,16,868.60
2008,08,21,14,17,896.50
2008,08,21,14,18,874.50
2008,08,21,14,19,850.60
2008,08,21,14,20,837.40
2008,08,21,14,21,825.30
2008,08,21,14,22,815.80
2008,08,21,14,23,812.00
2008,08,21,14,24,812.00
2008,08,21,14,25,809.50
2008,08,21,14,26,805.00
2008,08,21,14,27,800.80
2008,08,21,14,28,796.60
2008,08,21,14,29,795.20
2008,08,21,14,30,791.40
2008,08,21,14,31,788.90
2008,08,21,14,32,788.60
2008,08,21,14,33,791.00
2008,08,21,14,34,791.80
2008,08,21,14,35,795.50
2008,08,21,14,36,803.40
2008,08,21,14,37,813.40
2008,08,21,14,38,816.00
2008,08,21,14,39,829.80
2008,08,21,14,40,838.30
2008,08,21,14,41,832.80
2008,08,21,14,42,872.00
2008,08,21,14,43,872.00
2008,08,21,14,44,872.00
2008,08,21,14,45,872.00
2008,08,21,14,46,908.80
2008,08,21,14,47,918.00
2008,08,21,14,48,916.90
2008,08,21,14,49,896.00
2008,08,21,14,50,896.00
2008,08,21,14,51,690.80
2008,08,21,14,52,329.50
2008,08,21,14,53,317.70
2008,08,21,14,54,291.30
2008,08,21,14,55,354.00
2008,08,21,14,56,327.10
2008,08,21,14,57,356.70
2008,08,21,14,58,322.70
2008,08,21,14,59,359.00
2008,08,21,15,00,359.50
2008,08,21,15,01,343.70
2008,08,21,15,02,335.20
2008,08,21,15,03,339.00
2008,08,21,15,04,339.00
2008,08,21,15,05,347.30
2008,08,21,15,06,497.00
2008,08,21,15,07,466.00
2008,08,21,15,08,367.00
2008,08,21,15,09,534.00
2008,08,21,15,10,683.40
2008,08,21,15,11,647.00
2008,08,21,15,12,883.00
2008,08,21,15,13,952.80
2008,08,21,15,14,941.70
2008,08,21,15,15,940.00
2008,08,21,15,16,947.20
2008,08,21,15,17,953.00
2008,08,21,15,18,814.10
2008,08,21,15,19,636.30
2008,08,21,15,20,608.00
2008,08,21,15,21,886.70
2008,08,21,15,22,939.00
2008,08,21,15,23,919.60
2008,08,21,15,24,745.50
2008,08,21,15,25,747.00
2008,08,21,15,26,747.00
2008,08,21,15,27,791.50
2008,08,21,15,28,887.20
2008,08,21,15,29,944.30
2008,08,21,15,30,961.30
2008,08,21,15,31,976.00
2008,08,21,15,32,976.00
2008,08,21,15,33,976.00
2008,08,21,15,34,740.40
2008,08,21,15,35,387.00
2008,08,21,15,36,435.60
2008,08,21,15,37,468.00
2008,08,21,15,38,468.00
2008,08,21,15,39,337.40
2008,08,21,15,40,338.00
2008,08,21,15,41,340.00
2008,08,21,15,42,344.20
2008,08,21,15,43,381.70
2008,08,21,15,44,380.80
2008,08,21,15,45,329.20
2008,08,21,15,46,305.50
2008,08,21,15,47,291.20
2008,08,21,15,48,287.90
2008,08,21,15,49,298.40
2008,08,21,15,50,278.20
2008,08,21,15,51,260.40
2008,08,21,15,52,251.90
2008,08,21,15,53,248.00
2008,08,21,15,54,248.00
2008,08,21,15,55,236.80
2008,08,21,15,56,232.20
2008,08,21,15,57,228.60
2008,08,21,15,58,224.00
2008,08,21,15,59,218.20
2008,08,21,16,00,214.00
2008,08,21,16,01,214.00
2008,08,21,16,02,207.80
2008,08,21,16,03,200.20
2008,08,21,16,04,193.90
2008,08,21,16,05,188.30
2008,08,21,16,06,185.90
2008,08,21,16,07,185.00
2008,08,21,16,08,185.00
2008,08,21,16,09,185.40
2008,08,21,16,10,187.10
2008,08,21,16,11,190.50
2008,08,21,16,12,195.80
2008,08,21,16,13,202.90
2008,08,21,16,14,215.40
2008,08,21,16,15,221.90
2008,08,21,16,16,273.80
2008,08,21,16,17,330.00
2008,08,21,16,18,330.00
2008,08,21,16,19,325.20
2008,08,21,16,20,322.00
2008,08,21,16,21,322.00
2008,08,21,16,22,754.80
2008,08,21,16,23,801.30
2008,08,21,16,24,795.00
2008,08,21,16,25,795.00
2008,08,21,16,26,788.20
2008,08,21,16,27,797.60
2008,08,21,16,28,812.00
2008,08,21,16,29,588.00
2008,08,21,16,30,454.50
2008,08,21,16,31,436.80
2008,08,21,16,32,279.10
2008,08,21,16,33,266.20
2008,08,21,16,34,259.40
2008,08,21,16,35,264.40
2008,08,21,16,36,278.50
2008,08,21,16,37,338.70
2008,08,21,16,38,378.50
2008,08,21,16,39,383.00
2008,08,21,16,40,419.90
2008,08,21,16,41,752.00
2008,08,21,16,42,752.00
2008,08,21,16,43,752.00
2008,08,21,16,44,752.00
2008,08,21,16,45,448.20
2008,08,21,16,46,271.00
2008,08,21,16,47,275.20
2008,08,21,16,48,296.80
2008,08,21,16,49,690.00
2008,08,21,16,50,682.10
2008,08,21,16,51,667.80
2008,08,21,16,52,656.00
2008,08,21,16,53,656.00
2008,08,21,16,54,392.10
2008,08,21,16,55,245.20
2008,08,21,16,56,312.40
2008,08,21,16,57,244.90
2008,08,21,16,58,223.90
2008,08,21,16,59,217.40
2008,08,21,17,00,216.00
2008,08,21,17,01,216.00
2008,08,21,17,02,216.00
2008,08,21,17,03,216.00
2008,08,21,17,04,219.20
2008,08,21,17,05,222.70
2008,08,21,17,06,237.90
2008,08,21,17,07,271.60
2008,08,21,17,08,315.00
2008,08,21,17,09,427.40
2008,08,21,17,10,582.00
2008,08,21,17,11,582.00
2008,08,21,17,12,365.40
2008,08,21,17,13,288.00
2008,08,21,17,14,286.40
2008,08,21,17,15,256.80
2008,08,21,17,16,267.00
2008,08,21,17,17,267.00
2008,08,21,17,18,440.40
2008,08,21,17,19,626.10
2008,08,21,17,20,605.60
2008,08,21,17,21,610.10
2008,08,21,17,22,618.10
2008,08,21,17,23,607.50
2008,08,21,17,24,588.90
2008,08,21,17,25,561.60
2008,08,21,17,26,577.00
2008,08,21,17,27,577.00
2008,08,21,17,28,570.70
2008,08,21,17,29,561.10
2008,08,21,17,30,553.00
2008,08,21,17,31,545.30
2008,08,21,17,32,537.20
2008,08,21,17,33,531.50
2008,08,21,17,34,525.00
2008,08,21,17,35,519.60
2008,08,21,17,36,515.90
2008,08,21,17,37,515.00
2008,08,21,17,38,515.00
2008,08,21,17,39,505.60
2008,08,21,17,40,501.30
2008,08,21,17,41,477.10
2008,08,21,17,42,481.50
2008,08,21,17,43,476.20
2008,08,21,17,44,472.10
2008,08,21,17,45,471.00
2008,08,21,17,46,468.90
2008,08,21,17,47,465.00
2008,08,21,17,48,462.20
2008,08,21,17,49,460.70
2008,08,21,17,50,458.50
2008,08,21,17,51,455.50
2008,08,21,17,52,449.30
2008,08,21,17,53,443.20
2008,08,21,17,54,435.60
2008,08,21,17,55,428.40
2008,08,21,17,56,419.40
2008,08,21,17,57,413.20
2008,08,21,17,58,407.20
2008,08,21,17,59,402.00
2008,08,21,18,00,397.80
2008,08,21,18,01,395.10
2008,08,21,18,02,394.00
2008,08,21,18,03,392.60
2008,08,21,18,04,388.80
2008,08,21,18,05,385.30
2008,08,21,18,06,382.70
2008,08,21,18,07,379.60
2008,08,21,18,08,376.90
2008,08,21,18,09,372.60
2008,08,21,18,10,369.00
2008,08,21,18,11,365.20
2008,08,21,18,12,364.00
2008,08,21,18,13,356.40
2008,08,21,18,14,348.20
2008,08,21,18,15,344.10
2008,08,21,18,16,339.00
2008,08,21,18,17,339.00
2008,08,21,18,18,334.50
2008,08,21,18,19,327.90
2008,08,21,18,20,325.60
2008,08,21,18,21,323.40
2008,08,21,18,22,320.50
2008,08,21,18,23,315.70
2008,08,21,18,24,312.70
2008,08,21,18,25,310.10
2008,08,21,18,26,306.50
2008,08,21,18,27,302.40
2008,08,21,18,28,297.50
2008,08,21,18,29,290.10
2008,08,21,18,30,284.00
2008,08,21,18,31,278.50
2008,08,21,18,32,276.40
2008,08,21,18,33,265.80
2008,08,21,18,34,260.50
2008,08,21,18,35,254.70
2008,08,21,18,36,245.50
2008,08,21,18,37,236.40
2008,08,21,18,38,236.20
2008,08,21,18,39,232.80
2008,08,21,18,40,230.10
2008,08,21,18,41,228.40
2008,08,21,18,42,223.80
2008,08,21,18,43,219.80
2008,08,21,18,44,216.00
2008,08,21,18,45,212.30
2008,08,21,18,46,211.00
2008,08,21,18,47,205.40
2008,08,21,18,48,200.40
2008,08,21,18,49,198.60
2008,08,21,18,50,194.60
2008,08,21,18,51,190.70
2008,08,21,18,52,180.00
2008,08,21,18,53,164.50
2008,08,21,18,54,156.70
2008,08,21,18,55,148.90
2008,08,21,18,56,144.30
2008,08,21,18,57,139.50
2008,08,21,18,58,139.00
2008,08,21,18,59,137.80
2008,08,21,19,00,133.30
2008,08,21,19,01,130.00
2008,08,21,19,02,136.10
2008,08,21,19,03,142.00
2008,08,21,19,04,142.00
2008,08,21,19,05,153.10
2008,08,21,19,06,154.60
2008,08,21,19,07,150.70
2008,08,21,19,08,148.10
2008,08,21,19,09,146.00
2008,08,21,19,10,144.00
2008,08,21,19,11,142.00
2008,08,21,19,12,142.00
2008,08,21,19,13,136.10
2008,08,21,19,14,132.10
2008,08,21,19,15,127.60
2008,08,21,19,16,124.00
2008,08,21,19,17,119.20
2008,08,21,19,18,116.00
2008,08,21,19,19,114.40
2008,08,21,19,20,110.50
2008,08,21,19,21,106.20
2008,08,21,19,22,104.20
2008,08,21,19,23,100.00
2008,08,21,19,24,97.60
2008,08,21,19,25,94.40
2008,08,21,19,26,91.90
2008,08,21,19,27,89.00
2008,08,21,19,28,88.00
2008,08,21,19,29,84.50
2008,08,21,19,30,81.40
2008,08,21,19,31,77.40
2008,08,21,19,32,75.80